Regional Weather Roundup
Issued by NWS

Home | Current Version | Previous Version | Graphics & Text | Print | Product List | Glossary On
Versions: 1 2 3 4 5 6 7 8 9 10 11 12 13 14 15 16 17 18 19 20 21 22 23 24 25 26 27 28 29 30 31 32 33 34 35 36 37 38 39 40 41 42 43 44 45 46 47 48 49 50
000
ASUS43 KIND 221809
RWRIN

WEATHER ROUNDUP FOR INDIANA
NATIONAL WEATHER SERVICE INDIANAPOLIS IN
200 PM EDT TUE APR 22 2014

NOTE: "FAIR" INDICATES FEW OR NO CLOUDS BELOW 12,000 FEET WITH NO
SIGNIFICANT WEATHER AND/OR OBSTRUCTIONS TO VISIBILITY.

* - STATION DOES NOT REPORT WEATHER SUCH AS PRECIPITATION OR FOG.

+ - STATION NOT QUALITY CONTROLLED BY THE NATIONAL WEATHER SERVICE.
    USE DATA WITH CAUTION...ESPECIALLY DEWPOINT AND RELATIVE
    HUMIDITY OBSERVATIONS.

INZ001>003-010>013-019-020-221900-
NORTHWEST INDIANA

CITY           SKY/WX    TMP DP  RH WIND       PRES   REMARKS
GARY /AIRPORT/ SUNNY     50  32  50 NE14G28   29.98F
LA PORTE +     SUNNY     46  31  54 N21G31    29.96F
6HR MIN TEMP:  41; 6HR MAX TEMP:  47;

MICHIGAN CITY+ SUNNY     45  30  57 N15G25    29.98F
MONTICELLO +   SUNNY     52  35  51 N14G22    29.95F
RENSSELAER +   SUNNY     52  32  46 N10G18    29.97S
VALPARAISO     SUNNY     47  28  47 N16G24    29.97F
6HR MIN TEMP:  41; 6HR MAX TEMP:  47;


$$

LMZ046-743>745-221900-
SOUTHERN LAKE MICHIGAN

STATION/POSITION TIME  TEMP WIND        PRES
                       AIR  DIR/SP/G
                 (UTC) (F)  (DEG/KT/KT) (MB)
MICHIGAN CITY    1800   42  350/ 11/ 14   N/A

$$

INZ004-005-014>016-021>024-221900-
NORTH CENTRAL INDIANA

CITY           SKY/WX    TMP DP  RH WIND       PRES   REMARKS
GOSHEN         MOSUNNY   51  34  52 NW23G30   29.91S
6HR MIN TEMP:  44; 6HR MAX TEMP:  51;

LOGANSPORT +   SUNNY     52  32  46 NW13G20   29.94F
PERU/GRISSOM   SUNNY     54  36  50 NW22G28   29.92S
6HR MIN TEMP:  45; 6HR MAX TEMP:  54;

ROCHESTER +    MOSUNNY   54  32  43 N15G24    29.93F
SOUTH BEND     MOSUNNY   48  31  51 N25       29.95S
6HR MIN TEMP:  42; 6HR MAX TEMP:  49;

WARSAW +       MOSUNNY   50  32  50 NW18G28   29.92S

$$

INZ006>009-017-018-025>027-221900-
NORTHEAST INDIANA

CITY           SKY/WX    TMP DP  RH WIND       PRES   REMARKS
ANGOLA *+      MOSUNNY   52  36  54 NW15      29.84F
AUBURN +       SUNNY     54  32  43 W16G29    29.86S
FORT WAYNE     MOSUNNY   55  34  45 W20G26    29.87S
6HR MIN TEMP:  47; 6HR MAX TEMP:  56;


$$

INZ028-029-035-036-043>045-051>053-221900-
WEST CENTRAL INDIANA

CITY           SKY/WX    TMP DP  RH WIND       PRES   REMARKS
GREENCASTLE +  SUNNY     59  36  41 NW12G22   29.94S
LAFAYETTE      SUNNY     55  35  47 N14       29.95F
6HR MIN TEMP:  44; 6HR MAX TEMP:  56;

TERRE HAUTE    SUNNY     61  38  42 N10G25    29.94F
6HR MIN TEMP:  52; 6HR MAX TEMP:  61;


$$

INZ030>032-037>040-046>048-054>057-064-065-221900-
CENTRAL INDIANA

CITY           SKY/WX    TMP DP  RH WIND       PRES   REMARKS
ANDERSON       SUNNY     55  36  47 NW17G23   29.91S
CP ATTERBURY + SUNNY     61  37  41 NW16G25   29.91S
COLUMBUS       SUNNY     64  37  36 NW15G21   29.90F
INDIANAPOLIS   SUNNY     57  34  41 N20G29    29.91F
6HR MIN TEMP:  49; 6HR MAX TEMP:  58;

-EAGLE CREEK   SUNNY     57  36  45 N14       29.91F
6HR MIN TEMP:  49; 6HR MAX TEMP:  58;

KOKOMO *+      SUNNY     54  36  50 NW24G30   29.92
MARION +       SUNNY     55  32  42 N14G23    29.91S
MT COMFORT *+  SUNNY     59  37  44 NW16G24   29.90F
SHELBYVILLE    SUNNY     63  37  38 NW17G25   29.89S
6HR MIN TEMP:  55; 6HR MAX TEMP:  63;

ZIONSVILLE +   SUNNY     57  35  43 NW16G23   29.93S
6HR MIN TEMP:  47; 6HR MAX TEMP:  57;


$$

INZ033-034-041-042-049-050-058-059-221900-
EAST CENTRAL INDIANA

CITY           SKY/WX    TMP DP  RH WIND       PRES   REMARKS
MUNCIE         SUNNY     56  37  49 NW17G23   29.89S
6HR MIN TEMP:  49; 6HR MAX TEMP:  56;


$$

INZ060-061-067>069-081>083-085>088-221900-
SOUTHWEST INDIANA

CITY           SKY/WX    TMP DP  RH WIND       PRES   REMARKS
EVANSVILLE     SUNNY     69  47  45 N15G21    29.93S
6HR MIN TEMP:  61; 6HR MAX TEMP:  69;

HUNTINGBURG *+ SUNNY     66  50  55 NW15      29.92S
6HR MIN TEMP:  57; 6HR MAX TEMP:  66;

WASHINGTON +   SUNNY     64  45  50 NW13G22   29.92F
6HR MIN TEMP:  58; 6HR MAX TEMP:  64;


$$

INZ062-063-066-070>080-084-089>092-221900-
SOUTH CENTRAL AND SOUTHEAST INDIANA

CITY           SKY/WX    TMP DP  RH WIND       PRES   REMARKS
BLOOMINGTON    SUNNY     64  41  42 N9G17     29.91F
6HR MIN TEMP:  56; 6HR MAX TEMP:  64;


$$




USA.gov is the U.S. government's official web portal to all federal, state and local government web resources and services.